Overview Statistics Trail Chart Weather Telemetry Raw packets
 

This is the latest recevied weather packets stored in our database for station/object N7WSS. If no packets are shown the sender has not sent any weather packets the latest 10 day(s).

<< 59 60 61 62 63 64 65 >>
Time Temp. Humidity Pressure Rain* Wind** Luminosity Snow
1788223581 25.56° C 65% 1013.1 hPa 0 mm - - -
1788223276 25.56° C 62% 1013.1 hPa 0 mm - - -
1788222971 26.11° C 61% 1013.3 hPa 0 mm - - -
1788222670 26.11° C 60% 1013.2 hPa 0 mm - - -
1788222370 26.11° C 60% 1013.1 hPa 0 mm - - -
1788222065 26.11° C 64% 1013.1 hPa 0 mm - - -
1788221760 26.11° C 64% 1013.1 hPa 0 mm - - -
1788221455 26.11° C 64% 1012.9 hPa 0 mm - - -
1788221150 25.56° C 67% 1013.2 hPa 0 mm - - -
1788220846 26.11° C 65% 1013.2 hPa 0 mm - - -
1788220540 26.11° C 64% 1013.5 hPa 0 mm - - -
1788220235 26.11° C 65% 1013.2 hPa 0 mm - - -
1788219934 26.11° C 67% 1013.3 hPa 0 mm - - -
1788219630 26.11° C 67% 1013.5 hPa 0 mm - - -
1788219325 26.11° C 66% 1013.5 hPa 0 mm - - -
1788219021 25.56° C 70% 1013.5 hPa 0 mm - - -
1788218716 26.11° C 70% 1013.5 hPa 0 mm - - -
1788218412 25.56° C 72% 1013.8 hPa 0 mm - - -
1788218108 25° C 74% 1013.8 hPa 0 mm - - -
1788217804 25.56° C 73% 1013.8 hPa 0 mm - - -
1788217499 25.56° C 71% 1013.6 hPa 0 mm - - -
1788217198 25° C 73% 1013.9 hPa 0 mm - - -
1788216895 25° C 75% 1013.8 hPa 0 mm - - -
1788216589 24.44° C 75% 1014 hPa 0 mm - - -
1788216289 23.89° C 78% 1014 hPa 0 mm - - -

* Rain latest hour (hover to see other rain measurements)
** Current wind speed in m/s (hover to see current wind gust speed)